Location: �perlecques
(50.8057°N, 2.1521°E)
Time: 14:54:36
(UTC+00:00)

YUBILEINY - Pass Details

Date: 11 April 2023
Orbit: 1478 x 1508 km, 82.5° (Epoch: 01 June)

Event Time Altitude Azimuth Distance (km) Brightness Sun altitude
Rises 00:35:12 0° 340° (NNW) 4,655 ? -30.3°
Reaches altitude 10° 00:41:01 10° 310° (NW) 3,673 ? -30.1°
Maximum altitude 00:43:17 11° 295° (WNW) 3,574 ? -30.0°
Drops below altitude 10° 00:45:33 10° 280° (W) 3,670 ? -29.9°
Enters shadow 00:48:02 - 265° (W) 3,980 ? -29.8°
